When you browse on this site, cookies collect data to enhance your experience and personalize the content and advertising you see.
Visit our Privacy Policy to learn more. By continuing to use the site, you agree to this use of cookies and data.
  • In Austria
  • List of Countries
  • For 7 days
  • Water Temperature
  • Weather Map
  • News
  • Weather Widgets
  • user-avatar
    Login

    Hourly Weather Tlanchinol

    Today, 25 August, Sunday

    Time Temperature Precipitation Wind Pressure Humidity
    00:00 +19°C° 0 mm 1 mps 646 mmHg 93%
    01:00 +19°C° 0 mm 1 mps 645 mmHg 92%
    02:00 +19°C° 0 mm 1 mps 645 mmHg 92%
    03:00 +19°C° 0 mm 1 mps 644 mmHg 92%
    04:00 +18°C° 0 mm 1 mps 644 mmHg 92%
    05:00 +18°C° 0 mm 1 mps 644 mmHg 93%
    06:00 +18°C° 0 mm 0 mps 645 mmHg 86%
    07:00 +20°C° 0 mm 0 mps 646 mmHg 79%
    08:00 +22°C° 0 mm 0 mps 647 mmHg 72%
    09:00 +25°C° 0 mm 1 mps 647 mmHg 68%
    10:00 +27°C° 0 mm 1 mps 647 mmHg 63%
    11:00 +28°C° 0 mm 2 mps 647 mmHg 58%
    12:00 +28°C° 0.1 mm 2 mps 646 mmHg 60%
    13:00 +28°C° 0.1 mm 2 mps 646 mmHg 62%
    14:00 +27°C° 0.1 mm 2 mps 645 mmHg 64%
    15:00 +27°C° 0.3 mm 2 mps 645 mmHg 69%
    16:00 +26°C° 0.3 mm 1 mps 645 mmHg 74%
    17:00 +25°C° 0.3 mm 1 mps 644 mmHg 79%
    18:00 +24°C° 0.7 mm 1 mps 644 mmHg 83%
    19:00 +22°C° 0.7 mm 1 mps 645 mmHg 88%
    20:00 +21°C° 0.7 mm 1 mps 645 mmHg 93%
    21:00 +21°C° 0.1 mm 1 mps 645 mmHg 93%
    22:00 +20°C° 0.1 mm 1 mps 644 mmHg 93%
    23:00 +18°C° 0.1 mm 0 mps 644 mmHg 94%

    Tomorrow, 26 August, Monday

    Time Temperature Precipitation Wind Pressure Humidity
    00:00 +20°C° 0 mm 1 mps 644 mmHg 94%
    01:00 +20°C° 0 mm 1 mps 644 mmHg 94%
    02:00 +19°C° 0 mm 1 mps 643 mmHg 94%
    03:00 +19°C° 0 mm 1 mps 643 mmHg 94%
    04:00 +19°C° 0 mm 1 mps 643 mmHg 94%
    05:00 +19°C° 0 mm 1 mps 643 mmHg 93%
    06:00 +20°C° 0 mm 1 mps 644 mmHg 89%
    07:00 +22°C° 0 mm 1 mps 645 mmHg 85%
    08:00 +23°C° 0 mm 1 mps 645 mmHg 80%
    09:00 +24°C° 0.2 mm 1 mps 645 mmHg 77%
    10:00 +25°C° 0.2 mm 1 mps 645 mmHg 74%
    11:00 +26°C° 0.2 mm 2 mps 645 mmHg 71%
    12:00 +26°C° 0.8 mm 2 mps 645 mmHg 73%
    13:00 +26°C° 0.8 mm 2 mps 644 mmHg 74%
    14:00 +26°C° 0.8 mm 2 mps 644 mmHg 75%
    15:00 +26°C° 0.3 mm 1 mps 644 mmHg 78%
    16:00 +25°C° 0.3 mm 1 mps 643 mmHg 81%
    17:00 +25°C° 0.3 mm 1 mps 643 mmHg 84%
    18:00 +24°C° 0.2 mm 1 mps 643 mmHg 87%
    19:00 +22°C° 0.2 mm 1 mps 644 mmHg 90%
    20:00 +21°C° 0.2 mm 1 mps 644 mmHg 94%
    21:00 +20°C° 0.1 mm 1 mps 644 mmHg 94%
    22:00 +20°C° 0.1 mm 1 mps 644 mmHg 94%
    23:00 +20°C° 0.1 mm 1 mps 644 mmHg 95%

    Day after tomorrow, 27 August, Tuesday

    Time Temperature Precipitation Wind Pressure Humidity
    00:00 +18°C° 0.1 mm 0 mps 644 mmHg 95%
    01:00 +17°C° 0.1 mm 0 mps 644 mmHg 95%
    02:00 +17°C° 0.1 mm 0 mps 644 mmHg 95%
    03:00 +17°C° 0 mm 0 mps 644 mmHg 95%
    04:00 +19°C° 0 mm 1 mps 644 mmHg 96%
    05:00 +19°C° 0 mm 1 mps 644 mmHg 96%
    06:00 +20°C° 0 mm 1 mps 644 mmHg 92%
    07:00 +21°C° 0 mm 1 mps 645 mmHg 89%
    08:00 +23°C° 0 mm 1 mps 646 mmHg 85%
    09:00 +24°C° 0.1 mm 1 mps 646 mmHg 80%
    10:00 +25°C° 0.1 mm 1 mps 646 mmHg 74%
    11:00 +26°C° 0.1 mm 2 mps 646 mmHg 69%
    12:00 +26°C° 0.2 mm 2 mps 646 mmHg 69%
    13:00 +26°C° 0.2 mm 2 mps 645 mmHg 69%
    14:00 +26°C° 0.2 mm 2 mps 645 mmHg 69%
    15:00 +25°C° 0.3 mm 1 mps 645 mmHg 72%
    16:00 +25°C° 0.3 mm 1 mps 644 mmHg 75%
    17:00 +22°C° 0.3 mm 0 mps 644 mmHg 78%
    18:00 +23°C° 0.7 mm 1 mps 645 mmHg 82%
    19:00 +21°C° 0.7 mm 1 mps 645 mmHg 86%
    20:00 +20°C° 0.7 mm 1 mps 645 mmHg 90%
    21:00 +20°C° 0.3 mm 1 mps 645 mmHg 91%
    22:00 +19°C° 0.3 mm 1 mps 646 mmHg 92%
    23:00 +19°C° 0.3 mm 1 mps 646 mmHg 93%

    28 August, Wednesday

    Time Temperature Precipitation Wind Pressure Humidity
    00:00 +19°C° 0.1 mm 1 mps 646 mmHg 93%
    01:00 +19°C° 0.1 mm 1 mps 645 mmHg 93%
    02:00 +18°C° 0.1 mm 1 mps 645 mmHg 93%
    03:00 +18°C° 0.4 mm 1 mps 645 mmHg 94%
    04:00 +16°C° 0.4 mm 0 mps 646 mmHg 94%
    05:00 +16°C° 0.4 mm 0 mps 646 mmHg 95%
    06:00 +17°C° 0 mm 0 mps 646 mmHg 91%
    07:00 +19°C° 0 mm 0 mps 647 mmHg 87%
    08:00 +20°C° 0 mm 0 mps 648 mmHg 84%
    09:00 +23°C° 0.1 mm 1 mps 648 mmHg 78%
    10:00 +24°C° 0.1 mm 1 mps 648 mmHg 72%
    11:00 +26°C° 0.1 mm 2 mps 648 mmHg 66%
    12:00 +26°C° 0.1 mm 2 mps 647 mmHg 67%
    13:00 +26°C° 0.1 mm 2 mps 647 mmHg 68%
    14:00 +26°C° 0.1 mm 2 mps 647 mmHg 69%
    15:00 +25°C° 0.6 mm 1 mps 646 mmHg 74%
    16:00 +24°C° 0.6 mm 1 mps 646 mmHg 79%
    17:00 +23°C° 0.6 mm 1 mps 646 mmHg 84%
    18:00 +22°C° 0.1 mm 1 mps 646 mmHg 87%
    19:00 +20°C° 0.1 mm 1 mps 646 mmHg 89%
    20:00 +19°C° 0.1 mm 1 mps 647 mmHg 92%
    21:00 +19°C° 0.2 mm 1 mps 647 mmHg 93%
    22:00 +18°C° 0.2 mm 1 mps 647 mmHg 93%
    23:00 +18°C° 0.2 mm 1 mps 647 mmHg 94%

    29 August, Thursday

    Time Temperature Precipitation Wind Pressure Humidity
    00:00 +18°C° 0 mm 1 mps 647 mmHg 94%
    01:00 +18°C° 0 mm 1 mps 646 mmHg 94%
    02:00 +16°C° 0 mm 1 mps 646 mmHg 94%
    03:00 +16°C° 0 mm 1 mps 646 mmHg 93%
    04:00 +16°C° 0 mm 1 mps 646 mmHg 93%
    05:00 +16°C° 0 mm 1 mps 646 mmHg 93%
    06:00 +19°C° 0 mm 1 mps 647 mmHg 87%
    07:00 +21°C° 0 mm 1 mps 648 mmHg 81%
    08:00 +20°C° 0 mm 0 mps 649 mmHg 75%
    09:00 +24°C° 0 mm 1 mps 649 mmHg 70%
    10:00 +25°C° 0 mm 2 mps 649 mmHg 65%
    11:00 +26°C° 0 mm 2 mps 649 mmHg 60%
    12:00 +26°C° 0 mm 2 mps 648 mmHg 59%
    13:00 +26°C° 0 mm 2 mps 648 mmHg 58%
    14:00 +26°C° 0 mm 2 mps 647 mmHg 57%
    15:00 +25°C° 0 mm 2 mps 647 mmHg 61%
    16:00 +24°C° 0 mm 1 mps 647 mmHg 65%
    17:00 +23°C° 0 mm 1 mps 647 mmHg 68%
    18:00 +22°C° 0 mm 1 mps 647 mmHg 71%
    19:00 +21°C° 0 mm 1 mps 647 mmHg 74%
    20:00 +19°C° 0 mm 1 mps 647 mmHg 77%
    21:00 +19°C° 0 mm 1 mps 647 mmHg 79%
    22:00 +18°C° 0 mm 1 mps 647 mmHg 80%
    23:00 +18°C° 0 mm 1 mps 647 mmHg 82%

    30 August, Friday

    Time Temperature Precipitation Wind Pressure Humidity
    00:00 +18°C° 0 mm 1 mps 646 mmHg 82%
    01:00 +18°C° 0 mm 1 mps 646 mmHg 82%
    02:00 +16°C° 0 mm 1 mps 645 mmHg 83%
    03:00 +16°C° 0 mm 1 mps 645 mmHg 83%
    04:00 +16°C° 0 mm 1 mps 645 mmHg 84%
    05:00 +16°C° 0 mm 1 mps 645 mmHg 84%
    06:00 +19°C° 0 mm 1 mps 646 mmHg 77%
    07:00 +21°C° 0 mm 1 mps 647 mmHg 70%
    08:00 +21°C° 0 mm 0 mps 648 mmHg 63%
    09:00 +24°C° 0 mm 1 mps 648 mmHg 60%
    10:00 +25°C° 0 mm 2 mps 648 mmHg 57%
    11:00 +26°C° 0 mm 2 mps 648 mmHg 55%
    12:00 +26°C° 0 mm 2 mps 647 mmHg 55%
    13:00 +26°C° 0 mm 2 mps 647 mmHg 55%
    14:00 +26°C° 0 mm 2 mps 646 mmHg 56%
    15:00 +26°C° 0 mm 2 mps 646 mmHg 59%
    16:00 +25°C° 0 mm 1 mps 646 mmHg 63%
    17:00 +24°C° 0 mm 1 mps 645 mmHg 67%
    18:00 +22°C° 0 mm 1 mps 645 mmHg 71%
    19:00 +20°C° 0 mm 1 mps 646 mmHg 75%
    20:00 +18°C° 0 mm 1 mps 646 mmHg 80%
    21:00 +18°C° 0 mm 1 mps 646 mmHg 79%
    22:00 +18°C° 0 mm 1 mps 646 mmHg 79%
    23:00 +16°C° 0 mm 1 mps 645 mmHg 78%
    Show more